Temperature
15 15 16 16 16 16 16 15 15 15 15 15 15 15 15 15 15 15 15 15 15 15 14 14 14 14 14 14 14 14 13 13 13 13 13 13 14 14 14 14 14 13 13
15 15 16 16 16 16 16 15 16 16 15 15 15 15 15 15 15 15 15 15 15 14 14 14 14 14 14 14 14 13 13 13 13 12 12 12 13 14 14 13 13 13 13
15 15 16 16 16 16 16 16 16 16 16 16 15 15 15 15 15 15 15 15 15 14 14 14 14 14 14 14 14 14 13 13 13 12 12 12 12 12 13 13 13 12 12
15 15 16 16 16 16 16 16 16 16 16 15 15 15 15 15 15 15 15 15 14 14 14 14 14 14 14 14 14 13 13 13 13 12 12 12 12 11 11 12 12 12 12
15 15 16 16 16 16 16 16 16 16 16 15 15 15 15 15 15 15 15 14 14 14 14 14 14 14 13 13 13 13 13 12 12 12 12 12 11 11 11 11 11 11 11
15 15 15 16 16 16 16 16 15 15 15 15 15 15 15 15 15 14 14 14 14 14 14 14 13 13 13 13 13 13 12 12 12 12 11 11 11 11 11 10 11 11 10
15 15 15 15 15 15 15 15 15 15 15 15 15 15 15 14 14 14 14 14 14 14 14 13 13 13 13 13 13 12 12 12 12 11 11 11 10 10 10 10 10 9 9
14 14 14 14 15 15 15 15 15 15 15 15 14 14 14 14 14 14 14 14 14 13 13 13 13 13 12 12 12 12 12 12 11 11 11 10 10 10 10 9 9 9 8
13 13 13 14 14 14 14 14 14 14 14 14 14 14 14 14 14 14 13 13 13 13 13 13 12 12 12 12 12 11 11 11 11 10 10 10 10 10 9 9 9 8 8
12 12 12 13 13 13 14 14 14 14 14 14 14 14 13 13 13 13 13 13 13 12 12 12 12 12 12 11 11 11 11 10 10 10 10 9 9 9 9 8 8 8 7
11 11 11 12 12 12 13 13 13 13 13 13 13 13 13 13 13 12 12 12 12 11 11 11 11 11 11 11 10 10 10 10 9 9 9 9 8 8 8 8 8 7 7
10 10 11 11 11 12 12 12 12 12 12 12 12 12 12 12 12 12 11 11 11 11 11 11 10 10 10 10 10 9 9 9 9 8 8 8 8 8 7 7 7 7 6
9 9 10 10 10 11 11 11 11 11 11 11 11 11 11 11 11 10 10 10 10 10 10 10 10 9 9 9 9 8 8 8 8 7 7 7 7 7 7 6 6 6 6
8 9 9 9 9 10 10 10 10 10 10 10 10 10 10 10 10 10 10 9 9 9 9 9 9 8 8 8 8 8 7 7 7 7 6 6 6 6 6 5 5 5 5
8 8 8 8 9 9 9 9 9 9 9 10 10 10 9 9 9 9 9 9 8 8 8 8 8 8 7 7 7 7 6 6 6 6 5 5 5 5 5 5 4 4 4
7 7 7 8 8 8 9 9 9 9 9 9 9 9 9 9 8 8 8 8 8 7 7 7 7 7 6 6 6 6 5 5 5 5 4 4 4 4 4 4 4 4 3
6 7 7 7 7 8 8 8 8 8 8 8 8 8 8 8 8 8 7 7 7 7 7 6 6 6 6 5 5 5 5 4 4 4 4 4 4 3 3 3 3 3 3
6 6 6 6 7 7 7 7 7 8 8 8 8 8 8 7 7 7 7 7 6 6 6 6 5 5 5 5 4 4 4 4 3 3 3 3 3 3 2 2 2 2 2
5 6 6 6 6 6 7 7 7 7 7 7 7 7 7 7 7 6 6 6 6 5 5 5 5 4 4 4 3 3 3 3 3 2 2 2 2 2 2 2 2 1 1
5 5 5 5 5 6 6 6 6 7 7 7 7 7 6 6 6 6 5 5 5 5 4 4 4 4 3 3 3 2 2 2 2 2 2 2 1 1 1 1 1 1 0
4 4 5 5 5 5 5 6 6 6 6 6 6 6 6 5 5 5 5 5 4 4 4 3 3 3 3 2 2 2 2 2 1 1 1 1 1 0 0 0 0 0 -0
4 4 4 4 4 5 5 5 5 5 5 5 5 5 5 5 5 4 4 4 3 3 3 3 3 2 2 2 1 1 1 1 1 1 0 0 0 -0 -0 -0 -0 -1 -1
3 3 3 4 4 4 4 4 4 4 4 5 5 4 4 4 4 4 3 3 3 3 2 2 2 2 2 1 1 1 0 0 0 0 0 -0 -0 -1 -1 -1 -1 -1 -1
2 3 3 3 3 3 3 3 4 4 4 4 4 4 4 3 3 3 3 2 2 2 2 2 1 1 1 1 0 0 -0 -0 -0 -0 -0 -1 -1 -1 -1 -1 -2 -2 -2
2 2 2 2 3 3 3 3 3 3 3 3 3 3 3 3 2 2 2 2 1 1 1 1 1 1 1 0 -0 -0 -0 -1 -1 -1 -1 -1 -1 -1 -2 -2 -2 -2 -2
1 1 1 2 2 2 2 2 2 2 2 2 2 2 2 2 2 1 1 1 1 1 0 0 0 0 0 -0 -0 -1 -1 -1 -1 -1 -1 -1 -2 -2 -2 -2 -2 -2 -2
Wind_Speed
7 6 7 7 7 8 10 11 12 12 11 8 8 7 6 6 6 6 11 13 13 13 11 6 6 6 5 5 5 3 3 3 2 1 3 4 5 5 5 5 4 5 8
6 6 6 6 8 9 10 10 11 11 11 9 7 6 6 4 5 4 7 11 12 12 10 7 6 5 5 5 5 4 3 2 3 3 1 3 4 3 3 3 3 3 4
9 8 8 8 8 9 11 10 11 11 11 10 6 5 4 3 3 5 5 6 10 10 10 9 7 5 6 6 6 6 6 4 4 3 4 3 4 3 3 2 1 1 1
10 10 9 7 7 8 8 9 10 10 10 10 9 10 8 7 7 6 5 5 8 8 9 9 8 6 5 5 5 5 4 5 4 3 4 4 3 3 3 2 1 1 1
10 10 9 7 6 6 6 7 8 8 8 9 10 10 7 6 5 5 6 6 5 6 8 8 7 5 5 5 5 4 5 4 4 4 3 4 4 5 4 5 3 1 1
7 6 5 5 4 4 5 6 6 6 6 8 9 9 9 8 7 6 6 5 4 4 5 6 6 5 4 5 5 5 5 5 5 4 3 3 3 4 5 6 4 4 2
5 4 5 5 5 5 5 5 7 6 6 7 7 8 9 9 9 8 7 6 4 4 5 4 4 3 4 4 4 4 4 5 5 5 4 4 4 3 3 4 4 4 2
3 4 4 5 5 6 6 6 6 5 5 6 7 6 7 6 6 6 6 6 5 4 4 4 4 3 3 3 3 3 4 3 4 4 4 4 4 3 3 3 3 4 3
1 1 2 2 3 4 5 6 7 5 5 5 5 5 5 5 5 5 5 4 4 4 4 4 4 3 3 3 3 2 3 3 3 3 3 3 2 2 3 3 3 4 5
1 1 0 1 1 2 2 3 4 5 4 4 4 4 5 5 5 6 6 5 4 4 5 4 3 3 2 2 2 2 2 2 1 1 1 1 1 1 2 2 2 3 4
1 1 1 0 1 2 2 3 3 4 4 4 4 4 4 5 5 5 5 5 5 5 5 4 4 3 3 2 2 1 2 2 1 1 1 1 1 1 1 1 1 2 3
1 1 0 0 1 1 2 3 3 4 3 4 5 5 5 6 6 6 5 6 6 5 5 4 4 3 3 2 2 2 2 2 2 1 1 1 0 0 1 1 1 2 2
2 1 1 1 1 1 2 2 3 4 4 5 6 6 6 6 6 6 6 5 5 5 4 5 4 3 3 2 2 2 2 2 2 2 2 1 1 1 0 0 1 1 1
2 1 1 1 1 2 3 3 3 4 5 5 6 6 6 6 6 6 5 5 5 5 4 4 4 3 3 3 2 2 2 2 2 1 2 1 1 1 1 0 1 1 0
2 1 1 2 2 2 2 3 3 4 5 6 6 6 6 6 6 6 5 5 5 5 4 4 3 3 3 2 3 2 3 3 2 2 2 1 1 2 1 1 1 1 1
3 2 2 2 2 3 3 3 4 4 5 6 6 6 6 6 6 6 5 5 4 4 4 4 4 3 2 3 4 4 3 3 3 2 1 1 1 2 2 2 2 2 2
3 3 3 3 3 3 3 4 4 4 5 6 6 6 6 6 6 6 5 5 4 4 4 3 3 2 2 3 4 4 4 3 3 3 2 1 1 2 2 3 4 4 3
4 3 3 3 3 3 2 3 3 4 4 5 6 6 7 6 6 6 5 5 4 4 4 4 4 3 3 4 4 5 4 3 2 3 3 3 2 2 3 2 2 2 2
5 4 3 3 3 2 1 2 2 3 4 5 5 6 7 7 6 6 6 4 4 4 3 3 4 4 3 5 5 5 3 2 2 2 3 3 3 4 4 3 2 1 1
4 4 3 3 3 3 1 2 2 2 4 5 5 5 6 7 7 6 5 4 4 4 4 3 4 4 4 6 6 6 3 3 2 2 2 4 5 5 5 4 4 3 2
5 4 3 3 3 3 1 1 1 2 3 2 3 4 5 5 6 5 4 4 4 4 4 3 3 4 5 6 8 8 4 4 4 3 3 3 6 6 6 5 4 5 3
6 4 3 3 4 3 1 0 1 2 0 1 2 3 3 4 4 5 5 5 5 5 4 4 3 3 4 6 7 9 9 7 5 4 4 4 6 6 6 4 5 6 4
5 4 3 3 3 3 2 1 2 1 0 1 2 2 3 3 4 5 6 5 5 5 4 4 4 4 3 5 9 9 10 9 6 5 7 7 7 6 4 5 6 4 3
5 4 3 3 3 3 2 2 1 0 1 1 1 2 2 3 3 4 4 5 5 5 5 5 5 4 4 4 4 4 5 7 5 4 6 7 7 5 4 4 3 2 3
5 4 3 4 3 3 2 2 1 0 1 1 1 1 2 3 3 3 4 5 5 6 7 6 5 6 6 7 10 7 5 5 5 4 2 2 2 3 3 3 3 3 3
5 4 4 3 3 2 2 2 1 0 1 1 1 2 2 2 2 3 2 5 7 9 11 10 8 7 9 9 11 12 12 12 11 6 4 5 5 6 5 5 5 4 5
Wind_Direction
249 229 211 192 178 174 177 185 180 179 172 169 168 170 179 180 180 181 181 181 183 184 183 181 181 179 182 190 188 183 197 210 178 209 296 292 271 259 255 246 239 237 234
259 241 217 194 185 182 180 184 185 181 176 176 175 171 164 174 179 173 182 184 183 183 183 179 182 180 180 185 187 179 181 202 175 173 227 302 315 302 272 253 231 230 226
235 235 216 199 189 187 184 185 187 185 180 173 158 144 130 125 164 179 188 191 185 181 178 180 181 183 185 193 194 186 186 204 211 192 185 211 250 294 310 304 261 232 212
227 222 214 201 193 195 187 180 180 182 180 171 171 170 175 183 193 188 187 183 181 179 181 181 184 186 190 196 199 196 197 194 214 221 221 216 204 229 287 307 321 323 257
223 213 208 199 192 186 180 180 174 178 178 176 179 180 182 185 175 170 175 181 181 180 181 180 181 185 191 197 195 191 200 203 210 213 216 230 233 226 238 265 270 293 269
220 213 205 186 186 180 171 166 164 178 180 179 179 180 181 174 166 174 181 183 180 178 180 180 185 190 193 197 198 197 201 209 213 216 216 216 224 222 225 245 247 247 238
202 199 197 188 186 180 177 167 163 175 181 176 181 186 184 179 181 182 187 181 181 185 189 178 182 187 191 189 188 193 204 208 212 217 224 227 233 221 219 240 252 246 238
208 193 194 193 194 188 180 173 172 177 180 180 182 183 180 178 183 182 178 182 183 179 172 162 163 171 178 183 184 195 205 200 210 218 220 227 233 225 220 225 231 253 244
271 198 188 196 195 189 186 178 173 173 176 177 171 168 171 168 169 164 163 163 156 150 143 143 149 155 162 171 173 191 198 188 203 214 215 226 232 227 232 232 223 234 253
33 47 150 180 187 182 157 138 157 166 167 163 165 162 158 156 152 145 147 144 141 135 134 134 137 139 132 125 141 171 175 179 203 202 190 219 238 235 240 235 238 234 240
356 326 303 160 145 125 133 142 150 147 143 144 141 135 133 131 129 132 135 133 130 132 134 138 135 135 133 132 137 153 152 167 183 174 173 218 220 232 265 251 235 240 236
353 337 296 194 137 145 150 157 159 156 157 144 132 131 128 125 124 126 125 124 126 129 128 125 121 127 135 140 150 159 153 167 181 178 164 216 191 250 298 277 253 249 243
353 0 353 210 195 200 184 175 170 165 154 138 134 132 132 132 133 133 130 127 128 124 117 118 124 135 141 142 146 149 149 152 159 163 165 183 170 232 300 272 263 267 262
329 342 322 280 242 223 195 181 180 167 153 143 141 144 148 146 141 136 133 131 131 128 126 126 134 139 133 131 129 130 136 133 125 122 135 143 162 192 198 221 274 274 239
332 311 300 269 249 240 211 186 178 173 159 150 152 159 152 143 138 136 135 134 135 138 137 132 128 130 136 147 145 147 149 145 134 114 111 120 142 169 168 164 192 169 177
315 305 312 279 248 237 220 196 189 186 165 162 166 156 146 144 145 145 142 140 139 137 136 142 148 152 160 167 167 159 154 156 158 158 148 131 104 100 88 92 106 136 169
325 315 302 281 257 245 224 208 201 178 166 169 166 160 156 155 157 152 147 152 151 144 142 147 147 154 175 178 176 167 149 156 170 175 173 171 145 94 75 70 57 43 50
321 317 313 315 297 273 242 207 179 168 171 176 173 169 165 165 161 156 161 162 157 158 163 167 163 163 192 190 182 165 143 150 171 180 179 176 183 177 146 119 82 44 22
317 312 308 309 315 299 251 172 166 170 176 185 185 180 174 172 170 173 176 170 164 168 172 171 171 180 196 196 189 165 144 163 182 190 187 183 195 206 183 152 143 93 355
334 336 341 346 337 325 327 143 172 183 206 205 196 183 176 177 181 183 177 168 166 175 172 176 182 189 199 202 200 185 164 178 190 198 212 210 208 212 198 174 173 195 226
337 343 353 350 337 335 16 146 177 223 232 202 175 172 175 179 179 173 168 164 164 166 174 183 196 201 207 212 213 206 183 188 193 201 213 228 222 219 215 202 195 216 202
339 342 347 342 343 352 10 172 248 269 259 145 159 171 174 175 169 166 167 166 168 175 185 192 213 221 219 220 224 221 214 200 193 206 210 222 227 227 229 223 218 223 194
329 333 329 332 344 354 2 300 299 340 81 143 171 178 173 174 171 172 175 175 179 187 196 199 215 225 219 226 230 229 224 217 204 207 213 221 227 230 236 237 232 221 180
318 321 321 319 320 331 341 313 314 5 108 158 190 182 177 181 180 179 183 189 192 197 201 206 215 221 220 222 224 223 226 222 218 212 222 228 230 228 229 242 244 209 195
308 306 299 294 297 312 324 336 334 110 142 189 202 195 190 190 196 200 203 204 210 206 204 210 208 209 224 225 218 209 209 202 203 184 184 191 204 220 226 229 230 220 219
303 301 297 291 295 302 310 326 328 185 187 231 230 219 211 206 202 207 230 229 225 229 227 224 218 222 229 234 229 227 226 222 211 198 202 213 217 224 227 230 231 223 223
Height
1492 1494 1496 1498 1500 1503 1506 1509 1512 1515 1518 1521 1525 1528 1531 1534 1537 1539 1542 1544 1546 1548 1550 1552 1554 1555 1556 1558 1559 1560 1561 1562 1562 1562 1561 1561 1560 1560 1559 1559 1559 1559 1558
1490 1492 1494 1496 1499 1501 1503 1506 1509 1512 1515 1518 1521 1525 1528 1531 1534 1536 1539 1541 1543 1545 1546 1548 1550 1552 1553 1555 1556 1557 1557 1558 1559 1559 1558 1557 1556 1555 1555 1555 1555 1555 1555
1487 1489 1491 1493 1496 1499 1501 1504 1507 1509 1512 1516 1519 1522 1525 1528 1530 1532 1534 1537 1539 1541 1543 1545 1547 1549 1550 1551 1552 1553 1554 1554 1555 1556 1556 1555 1553 1552 1551 1551 1551 1551 1551
1484 1486 1488 1490 1493 1495 1499 1501 1504 1507 1510 1512 1515 1517 1519 1522 1525 1528 1530 1533 1535 1537 1539 1541 1543 1545 1546 1547 1548 1549 1550 1550 1550 1551 1551 1551 1551 1550 1548 1547 1547 1547 1547
1481 1482 1485 1487 1490 1493 1496 1499 1501 1504 1506 1509 1512 1514 1516 1519 1522 1525 1527 1530 1531 1533 1535 1537 1539 1540 1542 1543 1544 1544 1545 1545 1546 1546 1546 1546 1546 1546 1545 1543 1542 1542 1542
1477 1479 1482 1485 1487 1490 1493 1496 1498 1501 1503 1506 1508 1510 1513 1515 1518 1520 1523 1525 1527 1529 1531 1533 1535 1536 1537 1538 1539 1540 1540 1541 1541 1541 1541 1540 1540 1540 1540 1538 1537 1536 1537
1475 1477 1479 1481 1484 1487 1490 1492 1495 1498 1500 1503 1505 1507 1510 1512 1514 1517 1519 1521 1523 1525 1527 1529 1530 1532 1533 1534 1534 1535 1535 1535 1535 1535 1535 1535 1535 1535 1535 1534 1532 1531 1530
1472 1474 1476 1479 1481 1484 1487 1490 1492 1495 1497 1499 1502 1504 1507 1509 1511 1514 1515 1517 1519 1521 1523 1524 1526 1527 1528 1528 1529 1529 1529 1529 1530 1530 1530 1529 1529 1529 1528 1528 1528 1526 1525
1471 1472 1474 1477 1479 1481 1484 1487 1489 1492 1494 1496 1498 1500 1503 1505 1507 1509 1511 1513 1515 1517 1518 1520 1521 1522 1523 1523 1524 1524 1524 1524 1524 1524 1524 1524 1523 1523 1523 1522 1522 1522 1520
1470 1472 1473 1475 1477 1479 1481 1484 1486 1488 1491 1493 1495 1497 1499 1501 1503 1505 1507 1509 1510 1512 1513 1514 1516 1517 1517 1518 1518 1518 1518 1519 1518 1519 1518 1518 1518 1517 1517 1516 1516 1516 1515
1471 1471 1472 1474 1475 1477 1479 1481 1483 1485 1487 1489 1491 1493 1495 1497 1499 1501 1503 1504 1506 1508 1509 1510 1511 1512 1512 1513 1513 1513 1513 1513 1513 1513 1513 1513 1513 1512 1512 1511 1511 1511 1510
1470 1471 1472 1473 1474 1475 1476 1478 1479 1481 1483 1485 1487 1489 1491 1492 1494 1496 1498 1500 1502 1504 1505 1505 1506 1507 1508 1508 1508 1508 1508 1508 1508 1508 1508 1508 1507 1507 1507 1506 1506 1506 1505
1470 1470 1470 1471 1472 1473 1474 1475 1476 1478 1480 1482 1483 1485 1487 1489 1491 1492 1494 1496 1498 1499 1500 1501 1502 1503 1503 1503 1503 1503 1503 1503 1503 1503 1503 1503 1503 1502 1502 1501 1501 1501 1501
1470 1469 1469 1469 1470 1471 1472 1472 1473 1475 1476 1478 1480 1481 1483 1485 1487 1489 1491 1492 1494 1495 1496 1497 1498 1498 1498 1498 1498 1498 1498 1499 1499 1499 1498 1498 1498 1497 1497 1497 1496 1496 1496
1469 1468 1468 1468 1468 1469 1469 1470 1471 1472 1473 1475 1477 1478 1480 1482 1484 1486 1487 1489 1490 1491 1492 1493 1494 1494 1494 1494 1494 1494 1494 1494 1494 1494 1494 1494 1493 1493 1493 1493 1492 1492 1491
1468 1467 1467 1466 1466 1466 1467 1467 1468 1469 1470 1472 1474 1475 1477 1479 1481 1482 1484 1485 1486 1487 1488 1489 1490 1490 1490 1490 1489 1490 1490 1490 1490 1490 1490 1489 1489 1489 1489 1489 1488 1488 1488
1467 1467 1466 1465 1465 1465 1465 1465 1466 1467 1468 1469 1470 1472 1474 1476 1477 1479 1481 1482 1483 1484 1484 1485 1485 1486 1486 1486 1486 1485 1485 1486 1486 1486 1486 1486 1485 1485 1485 1485 1484 1484 1484
1467 1465 1464 1463 1463 1463 1463 1463 1463 1464 1465 1466 1467 1469 1471 1473 1474 1475 1477 1478 1479 1480 1481 1481 1481 1482 1482 1482 1482 1481 1481 1482 1482 1482 1482 1482 1482 1481 1481 1481 1480 1480 1480
1466 1464 1463 1462 1461 1460 1460 1460 1460 1461 1462 1463 1464 1466 1468 1469 1471 1472 1474 1475 1476 1476 1477 1477 1478 1478 1478 1478 1478 1478 1478 1478 1478 1478 1478 1478 1478 1478 1478 1477 1477 1477 1477
1465 1463 1461 1460 1459 1458 1458 1458 1458 1458 1459 1460 1461 1463 1464 1466 1467 1469 1470 1471 1472 1473 1473 1473 1474 1474 1474 1474 1474 1474 1474 1474 1475 1475 1475 1475 1475 1474 1474 1474 1474 1474 1474
1463 1462 1460 1459 1457 1456 1456 1455 1455 1456 1456 1457 1458 1459 1461 1462 1464 1465 1466 1467 1468 1469 1469 1469 1470 1470 1471 1471 1471 1470 1470 1471 1471 1471 1471 1471 1471 1471 1471 1471 1471 1471 1471
1462 1460 1458 1457 1456 1455 1454 1453 1453 1453 1454 1454 1455 1456 1457 1459 1460 1461 1462 1463 1464 1464 1465 1465 1466 1466 1466 1467 1466 1467 1467 1467 1467 1467 1468 1468 1468 1468 1468 1468 1467 1468 1467
1460 1458 1457 1455 1454 1453 1452 1452 1451 1451 1451 1451 1452 1453 1454 1455 1456 1457 1458 1459 1460 1460 1460 1461 1461 1462 1462 1462 1462 1463 1463 1463 1463 1464 1464 1464 1464 1464 1464 1464 1464 1464 1464
1457 1456 1454 1453 1452 1451 1450 1449 1449 1449 1448 1449 1449 1449 1450 1451 1452 1453 1454 1455 1455 1456 1456 1456 1457 1457 1458 1458 1458 1458 1459 1459 1459 1460 1460 1460 1460 1460 1460 1460 1460 1460 1460
1455 1453 1452 1450 1449 1448 1447 1447 1446 1446 1445 1445 1446 1446 1446 1447 1448 1449 1450 1450 1451 1452 1452 1452 1453 1453 1453 1454 1454 1454 1455 1455 1456 1455 1456 1456 1456 1456 1456 1456 1456 1456 1456
1452 1450 1449 1447 1446 1445 1444 1443 1443 1443 1442 1442 1442 1442 1443 1443 1444 1444 1445 1446 1447 1447 1447 1448 1448 1448 1449 1450 1449 1450 1450 1451 1451 1451 1451 1452 1452 1452 1452 1452 1452 1452 1452